DateTimeUTC,F1_A11,F1_S11,BsB_S11,BsG_S11,BsR_S11,BbsB_S11,BbsG_S11,BbsR_S11,BaB_A11,BaG_A11,BaR_A11,Tu_S11,T_S11,Uu_S11,U_S11,P_S11,T1_A11
2021-08-03T11:00:00Z,00000200,20000000,,,,,,,-000.04,-000.12,0000.30,18.9,25.2,03.5,02.4,0672.0,31.0
2021-08-03T11:01:00Z,00000200,20000000,,,,,,,-000.26,-000.39,-000.37,18.9,25.2,03.5,02.4,0672.0,31.0
2021-08-03T11:02:00Z,00000200,20000000,,,,,,,0000.15,0000.12,0000.07,18.9,25.2,03.5,02.4,0672.0,31.0
2021-08-03T11:03:00Z,00000200,60000000,,,,,,,0001.61,0001.38,0001.08,18.9,25.3,03.5,02.4,0672.0,31.0
2021-08-03T11:04:00Z,00000200,40000000,0011.11,0008.07,0004.98,0001.19,0001.22,0000.69,0002.20,0002.46,0001.76,19.0,25.1,03.6,02.5,0672.9,31.0
2021-08-03T11:05:00Z,00000200,00000000,0011.68,0008.26,0004.89,0000.94,0001.10,0000.99,0002.30,0001.76,0001.54,19.1,25.1,03.5,02.4,0673.0,31.0
2021-08-03T11:06:00Z,00000200,00000000,0011.50,0007.91,0004.99,0001.72,0001.07,0000.82,0002.18,0001.96,0001.57,19.1,25.1,03.6,02.5,0673.0,31.0
2021-08-03T11:07:00Z,00000200,00000000,0009.95,0008.07,0004.78,0001.55,0001.18,0000.77,0002.04,0002.09,0001.07,19.1,25.1,03.7,02.6,0673.0,31.0
2021-08-03T11:08:00Z,00000200,00000000,0010.22,0007.85,0004.90,0002.01,0001.20,0001.11,0002.34,0002.22,0001.77,19.1,25.1,03.6,02.5,0673.0,31.0
2021-08-03T11:09:00Z,00000200,00000000,0010.60,0007.38,0004.52,0001.46,0001.03,0000.65,0002.14,0001.91,0001.50,19.1,25.1,03.7,02.5,0673.0,31.0
2021-08-03T11:10:00Z,00000200,00000000,0011.07,0007.69,0004.75,0001.31,0000.89,0000.63,0002.02,0001.69,0001.47,19.1,25.1,03.7,02.5,0673.0,31.0
2021-08-03T11:11:00Z,00000200,00000000,0011.21,0007.43,0004.74,0000.51,0000.90,0000.69,0002.17,0001.66,0001.20,19.1,25.1,03.6,02.5,0673.0,31.0
2021-08-03T11:12:00Z,00000200,00000000,0010.68,0007.61,0004.98,0001.41,0000.82,0001.04,0002.49,0002.41,0001.96,19.1,25.1,03.7,02.6,0673.0,31.0
2021-08-03T11:13:00Z,00000200,00000000,0011.21,0007.95,0005.28,0001.41,0000.85,0000.77,0001.95,0001.90,0001.04,19.2,25.1,03.7,02.6,0673.0,31.0
2021-08-03T11:14:00Z,00000200,00000000,0011.34,0007.73,0005.28,0001.24,0001.22,0000.86,0002.25,0001.86,0001.89,19.2,25.1,03.6,02.5,0673.0,31.0
2021-08-03T11:15:00Z,00000200,00000000,0011.75,0007.45,0005.33,0001.35,0000.82,0000.42,0001.88,0001.90,0001.07,19.2,25.1,03.6,02.5,0673.0,31.0
2021-08-03T11:16:00Z,00000200,00000000,0011.16,0008.27,0005.23,0001.62,0000.87,0000.83,0002.27,0001.97,0001.92,19.2,25.1,03.6,02.5,0673.0,31.0
2021-08-03T11:17:00Z,00000200,00000000,0010.08,0008.10,0005.08,0001.13,0001.11,0000.54,0002.14,0001.96,0001.28,19.2,25.1,03.6,02.5,0673.0,31.0
2021-08-03T11:18:00Z,00000200,00000000,0011.01,0008.14,0004.79,0001.19,0001.23,0000.70,0002.15,0001.92,0001.42,19.2,25.2,03.6,02.5,0673.0,31.0
2021-08-03T11:19:00Z,00000200,00000000,0011.78,0007.71,0005.17,0001.08,0000.90,0000.57,0002.04,0001.96,0001.62,19.3,25.2,03.6,02.5,0673.0,31.0
2021-08-03T11:20:00Z,00000200,00000000,0010.85,0008.17,0005.00,0000.71,0000.91,0000.27,0002.42,0002.04,0001.42,19.3,25.1,03.6,02.5,0673.0,31.0
2021-08-03T11:21:00Z,00000200,00000000,0011.15,0008.10,0004.92,0001.28,0001.00,0000.57,0002.16,0002.10,0001.57,19.3,25.1,03.6,02.5,0673.0,31.0
2021-08-03T11:22:00Z,00000200,00000000,0011.51,0008.02,0005.23,0001.18,0000.95,0000.55,0002.12,0001.79,0001.32,19.3,25.2,03.6,02.5,0673.1,31.0
2021-08-03T11:23:00Z,00000200,00000000,0010.80,0007.88,0005.06,0001.89,0001.04,0000.60,0001.95,0001.96,0001.57,19.3,25.2,03.6,02.5,0673.1,31.0
2021-08-03T11:24:00Z,00000200,00000000,0011.34,0007.94,0004.89,0001.47,0001.21,0001.38,0002.44,0002.01,0001.32,19.3,25.2,03.6,02.5,0673.1,31.0
2021-08-03T11:25:00Z,00000200,00000000,0011.46,0008.64,0005.54,0001.23,0000.98,0000.90,0001.52,0001.43,0000.76,19.3,25.2,03.4,02.4,0673.1,31.0
2021-08-03T11:26:00Z,00000200,00000000,0013.51,0009.41,0005.96,0001.91,0001.21,0000.54,0002.57,0001.84,0001.53,19.3,25.2,03.0,02.1,0673.1,31.0
2021-08-03T11:27:00Z,00000200,00000000,0012.93,0009.42,0006.04,0002.03,0000.92,0000.96,0002.22,0002.32,0001.80,19.3,25.2,03.0,02.1,0673.1,31.0
2021-08-03T11:28:00Z,00000200,00000000,0012.20,0009.31,0006.06,0002.45,0001.31,0000.75,0002.31,0002.40,0001.90,19.3,25.2,02.9,02.0,0673.1,31.0
2021-08-03T11:29:00Z,00000200,00000000,0012.82,0009.43,0006.01,0001.70,0001.08,0001.06,0002.57,0002.06,0001.75,19.3,25.2,02.9,02.0,0673.1,31.0
2021-08-03T11:30:00Z,00000200,00000000,0012.91,0009.03,0005.86,0001.21,0001.16,0001.09,0002.95,0002.55,0002.11,19.3,25.2,03.0,02.1,0673.1,31.1
2021-08-03T11:31:00Z,00000200,00000000,0011.11,0008.37,0005.07,0001.42,0001.01,0000.70,0002.88,0002.61,0002.02,19.3,25.2,03.1,02.2,0673.1,31.0
2021-08-03T11:32:00Z,00000200,00000000,0010.42,0007.89,0004.99,0001.19,0001.25,0000.87,0002.45,0002.21,0002.14,19.3,25.2,03.5,02.4,0673.1,31.0
2021-08-03T11:33:00Z,00000200,00000000,0010.90,0008.32,0005.22,0001.67,0001.06,0000.67,0002.14,0002.39,0001.42,19.3,25.2,03.5,02.4,0673.1,31.0
2021-08-03T11:34:00Z,00000200,00000000,0010.57,0007.40,0004.97,0001.28,0000.97,0001.00,0002.07,0001.92,0001.53,19.3,25.2,03.6,02.5,0673.1,31.0
2021-08-03T11:35:00Z,00000200,00000000,0011.23,0007.66,0005.06,0001.66,0001.10,0000.58,0002.45,0001.80,0001.48,19.3,25.2,03.7,02.5,0673.1,31.0
2021-08-03T11:36:00Z,00000200,00000000,0011.46,0008.25,0005.24,0001.74,0000.94,0000.68,0002.03,0001.83,0001.41,19.3,25.2,03.5,02.4,0673.1,31.0
2021-08-03T11:37:00Z,00000200,00000000,0011.15,0007.47,0005.06,0001.47,0000.95,0000.88,0002.14,0002.25,0001.84,19.3,25.3,03.6,02.5,0673.1,31.0
2021-08-03T11:38:00Z,00000200,00000000,0010.23,0007.59,0004.68,0001.47,0001.13,0000.62,0002.04,0001.68,0001.28,19.3,25.3,03.6,02.5,0673.1,31.0
2021-08-03T11:39:00Z,00000200,00000000,0011.08,0007.19,0004.77,0000.95,0001.03,0000.61,0002.32,0002.24,0001.24,19.3,25.3,03.5,02.5,0673.1,31.0
2021-08-03T11:40:00Z,00000200,00000000,0011.67,0007.71,0004.66,0001.84,0000.78,0000.89,0002.01,0001.78,0001.57,19.3,25.3,03.5,02.5,0673.1,31.1
2021-08-03T11:41:00Z,00000200,00000000,0010.56,0007.57,0004.89,0001.42,0000.67,0000.61,0002.05,0001.97,0001.31,19.3,25.3,03.5,02.5,0673.1,31.0
2021-08-03T11:42:00Z,00000200,00000000,0010.51,0007.96,0004.97,0001.98,0001.15,0000.41,0002.05,0001.88,0001.81,19.3,25.3,03.5,02.4,0673.1,31.0
2021-08-03T11:43:00Z,00000200,00000000,0009.87,0007.39,0004.91,0001.45,0000.97,0000.74,0002.16,0001.57,0001.27,19.3,25.3,03.6,02.5,0673.1,31.0
2021-08-03T11:44:00Z,00000200,00000000,0010.78,0007.98,0005.15,0001.41,0000.90,0001.07,0001.98,0001.99,0001.33,19.3,25.3,03.5,02.4,0673.1,31.0
2021-08-03T11:45:00Z,00000200,00000000,0011.31,0007.47,0004.58,0001.78,0000.92,0001.01,0002.24,0002.17,0001.54,19.3,25.3,03.6,02.5,0673.1,31.0
2021-08-03T11:46:00Z,00000200,00000000,0010.96,0007.75,0004.56,0002.36,0000.98,0000.65,0002.24,0001.73,0001.12,19.4,25.3,03.6,02.5,0673.1,31.0
2021-08-03T11:47:00Z,00000200,00000000,0010.91,0006.80,0004.85,0001.05,0000.80,0000.79,0001.65,0001.88,0001.61,19.4,25.3,03.7,02.5,0673.1,31.0
2021-08-03T11:48:00Z,00000200,00000000,0010.83,0007.43,0004.72,0001.12,0001.10,0000.80,0002.37,0002.17,0001.57,19.4,25.3,03.6,02.5,0673.1,31.0
2021-08-03T11:49:00Z,00000200,00000000,0010.34,0006.93,0004.40,0001.43,0000.98,0000.61,0002.17,0001.83,0001.36,19.4,25.3,03.6,02.5,0673.1,31.1
2021-08-03T11:50:00Z,00000200,00000000,0010.42,0007.03,0004.33,0001.03,0000.76,0000.86,0002.07,0002.13,0001.49,19.4,25.3,03.6,02.5,0673.1,31.0
2021-08-03T11:51:00Z,00000200,00000000,0011.22,0007.41,0004.70,0001.56,0001.01,0000.68,0001.60,0001.65,0001.27,19.4,25.3,03.5,02.4,0673.1,31.0
2021-08-03T11:52:00Z,00000200,00000000,0009.66,0007.40,0004.37,0001.06,0001.42,0000.49,0002.62,0001.90,0001.26,19.4,25.3,03.5,02.5,0673.0,31.1
2021-08-03T11:53:00Z,00000200,00000000,0009.66,0006.88,0004.75,0001.73,0001.06,0000.89,0001.90,0001.42,0001.77,19.5,25.3,03.6,02.5,0673.0,31.0
2021-08-03T11:54:00Z,00000200,00000000,0010.51,0007.04,0004.70,0001.29,0000.80,0000.86,0002.00,0002.05,0001.47,19.4,25.3,03.6,02.5,0673.0,31.1
2021-08-03T11:55:00Z,00000200,00000000,0010.12,0007.30,0004.17,0001.21,0000.81,0000.47,0002.07,0001.63,0001.00,19.5,25.3,03.6,02.5,0673.0,31.0
2021-08-03T11:56:00Z,00000200,00000000,0010.76,0007.27,0004.59,0001.08,0001.45,0000.61,0001.79,0002.12,0001.60,19.5,25.4,03.6,02.5,0673.0,31.0
2021-08-03T11:57:00Z,00000200,40000000,,,,,,,0001.07,0000.61,0000.47,19.5,25.4,04.0,02.8,0672.9,31.0
2021-08-03T11:58:00Z,00000200,60000000,,,,,,,-000.17,-000.29,-000.38,19.3,25.5,03.3,02.3,0672.0,31.0
2021-08-03T11:59:00Z,00000200,20000000,,,,,,,-000.26,0000.01,0000.35,19.3,25.6,03.2,02.2,0672.0,31.0
